Wind_Speed
38 36 30 31 32 30 30 29 27 26 29 30 28 26 28 32 31 31 31 30 28 27 30 28 27 28 28 27 28 27 27 28 29 30 29 29 29 29 30 31 31 33 34 35
42 37 34 35 33 33 33 33 31 31 33 37 31 31 29 35 36 34 36 36 32 33 31 32 31 32 31 32 31 31 31 30 31 31 31 30 30 30 31 32 33 34 36 38
43 40 38 38 35 35 36 36 35 36 36 39 39 42 37 34 35 34 32 33 36 34 34 34 34 35 35 35 36 36 35 33 32 34 34 33 31 31 33 34 35 37 38 40
45 42 40 38 38 37 38 37 39 39 41 42 42 54 44 37 32 33 32 33 35 35 33 34 33 34 36 38 40 39 37 36 36 36 36 36 35 35 35 36 36 37 40 41
46 45 43 42 39 39 40 39 40 41 42 45 49 55 51 40 32 24 30 35 34 34 33 33 34 35 39 40 40 40 40 37 39 39 38 38 37 37 37 38 38 40 41 42
49 48 46 44 41 40 41 42 41 42 44 56 52 54 55 48 39 29 27 31 33 33 33 33 35 36 37 39 40 40 40 40 40 39 39 39 38 39 39 40 42 43 43 44
50 49 47 45 45 43 42 42 44 48 54 59 58 62 51 48 33 32 32 31 33 32 33 35 37 39 40 42 41 41 42 42 42 41 40 40 41 41 42 43 43 44 45 46
51 52 48 45 44 43 42 44 46 53 57 62 64 56 46 39 30 26 31 31 32 34 36 37 39 41 42 43 44 42 42 43 41 41 41 42 42 43 45 45 45 46 48 48
56 56 54 51 50 47 50 53 52 51 60 63 59 50 41 35 31 25 23 26 28 32 34 37 38 41 42 40 43 43 42 43 44 43 44 44 44 45 46 47 47 49 50 51
60 62 61 60 59 61 62 61 61 61 61 64 59 46 37 35 35 28 23 26 28 30 33 38 41 43 44 43 41 44 45 45 46 47 46 45 45 47 47 48 49 51 53 54
52 60 66 65 66 62 54 55 56 56 57 59 56 42 40 41 41 38 30 28 29 30 31 34 37 41 46 46 44 43 43 43 44 46 47 47 48 49 51 51 53 55 56 57
43 50 56 58 54 53 52 51 50 52 51 50 49 41 39 45 40 42 36 31 37 38 35 35 37 38 40 42 42 45 46 47 47 48 48 50 52 53 54 55 56 58 58 59
43 46 51 56 58 58 54 50 48 47 47 47 52 38 43 50 47 45 43 38 39 42 42 40 39 39 42 44 48 48 48 49 50 51 53 53 53 54 55 56 58 59 59 61
54 52 50 53 51 51 52 51 51 51 57 54 56 47 50 52 50 47 49 43 42 44 48 45 42 42 43 44 46 48 47 50 52 54 55 56 56 57 59 61 61 61 63 64
60 56 56 47 46 48 51 51 48 52 58 57 59 59 52 51 53 59 55 44 43 47 50 52 50 46 45 45 47 49 51 51 52 55 57 59 62 61 60 60 61 63 65 68
54 57 53 56 46 47 55 51 52 53 54 58 51 53 51 52 51 54 55 52 51 53 56 54 53 50 48 47 50 53 53 54 56 57 59 62 63 62 62 64 65 67 68 68
58 59 50 52 56 55 62 50 52 54 48 50 55 47 45 48 52 53 54 57 58 58 55 54 55 55 53 50 50 51 53 55 56 58 60 61 61 62 63 65 68 69 69 67
76 65 58 51 53 59 61 48 49 54 54 53 50 43 45 48 47 47 51 53 50 49 49 52 52 53 53 54 52 53 54 54 55 55 56 59 61 64 67 69 69 69 68 66
77 75 71 67 66 63 58 58 57 58 53 53 53 50 51 44 48 52 46 45 50 52 52 51 51 52 54 55 55 56 56 57 57 57 58 60 64 66 67 68 68 66 65 71
78 74 68 76 76 72 58 54 56 61 66 44 56 51 48 47 52 50 44 50 54 54 55 56 56 55 55 55 54 53 54 57 58 58 60 62 65 65 66 66 61 65 70 74
56 69 72 69 66 72 65 55 55 59 53 51 54 49 46 50 52 54 55 54 53 55 55 56 58 57 55 55 57 58 58 57 59 59 58 59 59 60 58 59 65 70 73 71
48 47 51 58 63 72 75 70 70 66 65 65 63 61 57 54 53 51 51 55 57 57 58 58 58 57 57 57 55 55 57 59 59 58 58 58 56 58 61 65 70 72 72 74
51 51 44 40 48 48 41 43 58 65 65 60 58 58 56 58 58 57 57 58 59 59 61 62 63 61 59 59 61 60 59 58 57 57 57 58 61 64 66 68 71 73 76 77
74 68 62 59 49 46 44 42 38 42 44 49 53 53 53 55 57 54 55 57 60 61 61 62 63 63 59 59 56 55 55 55 57 58 60 63 66 67 66 69 76 76 76 79
75 78 74 75 71 60 60 55 54 49 47 48 47 48 48 49 59 63 62 58 56 56 57 56 54 53 53 55 57 57 58 59 61 62 63 65 66 68 72 77 81 82 82 81
69 65 71 68 66 76 70 63 63 58 49 48 50 51 51 51 53 57 56 54 55 57 56 54 57 57 58 58 58 57 55 55 57 60 63 66 69 72 73 73 74 76 78 79
Wind_Direction
239 241 246 249 254 259 263 266 269 275 275 275 278 275 282 285 291 287 283 281 279 278 272 268 261 260 260 260 261 264 268 271 270 269 269 267 265 265 268 270 270 270 271 272
242 244 246 251 256 262 266 269 271 272 275 277 278 278 277 289 292 287 280 276 275 270 270 269 262 259 260 262 266 268 267 270 273 271 268 268 266 267 267 271 273 273 275 274
246 248 247 253 259 263 265 269 272 273 275 279 283 275 279 285 293 290 282 274 268 265 263 261 259 259 261 264 266 267 269 271 273 274 271 269 268 266 267 269 272 273 273 271
249 251 254 256 258 263 266 269 272 275 277 278 280 280 278 287 287 288 288 270 262 262 263 261 258 260 262 262 263 267 268 270 272 274 271 267 266 266 268 270 271 271 270 269
251 252 254 258 261 265 268 269 271 274 276 277 276 283 285 283 280 284 280 275 266 263 258 257 260 262 265 267 267 267 269 270 268 268 268 266 265 267 269 269 270 269 269 267
252 255 257 260 263 266 268 270 271 273 276 274 279 283 282 287 284 276 280 272 269 263 258 261 264 267 268 269 271 269 267 265 266 266 265 263 265 267 268 268 268 268 267 266
255 257 260 261 263 265 267 269 271 269 269 275 280 281 282 291 290 274 271 268 265 265 263 263 265 267 268 270 269 271 270 267 266 264 263 264 265 267 268 269 268 267 266 267
259 257 259 262 263 265 263 263 266 271 277 278 279 278 284 286 291 277 264 260 263 264 263 263 264 266 267 268 268 270 269 265 262 261 261 263 265 265 266 267 266 265 266 270
257 257 258 259 260 259 262 262 265 269 272 275 279 280 276 280 284 279 272 264 260 262 266 264 266 268 268 271 266 264 265 264 262 262 263 265 264 264 263 263 263 265 268 271
254 257 257 258 258 259 260 264 266 266 269 273 274 273 270 277 271 268 274 270 266 266 266 264 267 269 267 269 270 265 265 265 261 262 264 263 263 263 263 262 263 266 270 273
252 255 257 258 261 263 261 263 263 263 263 266 269 266 272 274 273 272 274 271 271 265 259 263 264 264 264 264 264 263 264 264 261 261 261 260 260 260 262 263 267 269 272 274
255 254 250 254 254 255 252 257 258 257 260 265 269 258 276 275 273 277 278 274 280 273 267 266 268 267 267 265 265 264 262 262 262 260 258 258 260 262 264 267 270 272 273 275
250 252 250 249 251 250 252 255 260 263 264 262 264 264 267 268 274 276 276 274 269 270 272 269 269 270 269 266 264 262 262 261 259 259 260 261 262 264 266 269 270 272 275 278
258 254 251 250 254 254 256 257 259 258 258 259 260 268 269 272 272 271 274 274 271 272 270 270 269 269 270 267 263 264 264 262 260 261 263 264 264 265 267 269 272 275 279 281
253 254 256 254 249 248 253 254 252 253 261 260 264 263 260 261 265 269 274 276 271 268 269 269 271 271 274 272 268 265 263 261 263 264 265 265 266 268 271 273 275 277 280 282
249 247 252 252 248 249 250 254 254 256 254 258 266 269 266 267 267 265 265 266 268 268 268 270 275 275 272 268 266 266 262 261 261 261 262 264 267 271 272 274 277 278 280 281
244 247 247 250 246 252 252 251 258 260 263 264 262 262 267 260 263 268 263 261 264 267 269 270 270 271 271 268 266 264 262 262 263 264 265 267 269 271 272 273 276 278 280 281
250 248 250 247 245 250 252 249 256 258 256 261 268 272 275 270 269 265 267 269 269 266 263 262 266 271 274 273 271 267 268 268 268 269 268 268 269 271 273 275 277 278 280 281
247 249 248 250 248 254 253 251 255 260 261 262 267 268 271 277 273 268 275 270 264 261 262 265 270 273 273 272 273 273 272 271 273 277 275 274 273 274 275 276 277 279 280 282
246 249 253 253 256 259 258 257 258 255 258 261 262 262 264 266 269 268 265 267 269 270 269 269 270 270 270 270 271 273 274 273 274 276 275 273 274 277 278 280 282 281 281 282
246 246 248 253 253 256 257 256 256 253 264 254 259 263 263 263 269 267 267 269 271 272 272 273 273 272 270 270 270 271 272 272 273 274 275 275 277 276 275 279 279 278 279 277
229 237 245 249 252 252 258 258 257 265 269 269 266 261 259 263 265 268 267 267 268 270 271 273 273 273 273 273 273 271 270 272 274 274 274 276 276 273 274 275 274 275 276 274
235 236 228 230 253 257 249 250 253 256 260 259 260 263 264 268 269 268 267 269 271 274 275 275 273 272 272 272 271 271 271 272 273 273 274 270 268 267 269 272 272 270 270 276
247 247 244 250 238 243 246 249 254 256 257 255 257 261 264 272 272 274 279 276 273 272 270 270 268 274 273 272 271 270 269 268 269 270 268 265 264 266 269 268 270 270 269 271
254 255 259 263 258 249 256 265 268 267 272 276 276 276 274 274 271 273 272 268 267 270 273 274 272 271 270 271 273 272 270 269 268 266 265 264 264 265 267 268 269 271 277 282
255 258 258 267 269 265 266 272 277 277 275 269 269 268 267 268 267 268 265 267 270 270 270 270 272 272 272 273 274 273 272 270 267 265 265 265 267 268 271 275 280 283 284 284
Height
5826 5830 5836 5835 5835 5838 5838 5839 5841 5841 5838 5837 5839 5841 5841 5838 5841 5840 5839 5838 5838 5838 5836 5837 5838 5838 5838 5839 5839 5839 5839 5839 5839 5839 5839 5840 5840 5840 5839 5839 5839 5838 5837 5836
5820 5824 5827 5827 5829 5831 5833 5833 5834 5834 5831 5829 5833 5833 5835 5833 5834 5835 5833 5831 5832 5830 5830 5830 5830 5830 5831 5832 5832 5833 5833 5833 5833 5833 5832 5832 5832 5832 5832 5831 5831 5830 5829 5828
5813 5817 5819 5820 5823 5824 5825 5826 5826 5825 5824 5822 5821 5820 5826 5830 5828 5826 5825 5824 5823 5823 5822 5822 5823 5823 5824 5825 5825 5825 5825 5826 5826 5825 5825 5825 5825 5824 5824 5823 5823 5821 5821 5819
5805 5810 5812 5814 5815 5815 5817 5817 5817 5817 5815 5814 5813 5802 5815 5821 5822 5819 5816 5813 5813 5814 5815 5815 5815 5816 5816 5816 5816 5817 5817 5817 5818 5817 5817 5817 5817 5816 5815 5815 5814 5813 5812 5810
5799 5800 5802 5805 5808 5807 5810 5810 5809 5807 5807 5802 5805 5799 5799 5810 5813 5815 5809 5805 5804 5806 5807 5807 5807 5807 5807 5807 5807 5808 5809 5809 5808 5808 5808 5808 5808 5807 5807 5806 5805 5804 5802 5801
5786 5789 5794 5797 5799 5799 5800 5800 5800 5799 5796 5790 5798 5795 5786 5797 5804 5805 5804 5799 5797 5797 5798 5799 5798 5798 5798 5797 5798 5798 5799 5799 5799 5799 5798 5798 5798 5798 5797 5796 5794 5793 5792 5791
5776 5780 5783 5786 5788 5789 5791 5791 5790 5788 5785 5784 5784 5779 5780 5783 5790 5793 5795 5793 5790 5790 5791 5791 5790 5789 5789 5788 5788 5788 5789 5789 5789 5789 5789 5789 5788 5788 5787 5785 5784 5783 5782 5780
5763 5767 5773 5777 5779 5778 5778 5780 5780 5774 5775 5776 5772 5768 5774 5776 5781 5781 5780 5782 5782 5781 5780 5781 5781 5781 5780 5779 5779 5778 5779 5778 5779 5779 5779 5778 5778 5778 5776 5775 5774 5772 5771 5770
5749 5753 5759 5763 5764 5765 5768 5767 5771 5767 5767 5763 5762 5764 5764 5768 5770 5772 5773 5772 5773 5772 5771 5772 5771 5770 5770 5769 5768 5768 5768 5768 5769 5769 5768 5768 5768 5767 5765 5763 5762 5761 5760 5757
5734 5737 5744 5747 5750 5751 5753 5757 5757 5756 5756 5753 5753 5751 5755 5759 5758 5763 5766 5766 5765 5764 5763 5762 5761 5759 5758 5758 5758 5758 5758 5758 5757 5758 5758 5757 5757 5755 5754 5752 5751 5750 5748 5745
5721 5723 5730 5732 5737 5740 5741 5742 5741 5741 5742 5741 5742 5743 5748 5749 5749 5750 5756 5757 5756 5756 5755 5753 5751 5749 5748 5747 5747 5746 5747 5747 5747 5746 5746 5745 5744 5743 5742 5741 5740 5738 5735 5733
5711 5709 5713 5718 5721 5723 5725 5728 5727 5726 5732 5734 5734 5732 5740 5734 5740 5741 5743 5745 5743 5743 5744 5743 5742 5741 5739 5739 5737 5736 5736 5736 5736 5734 5734 5733 5732 5731 5731 5729 5727 5725 5723 5720
5698 5694 5699 5702 5707 5709 5711 5717 5721 5719 5721 5725 5720 5727 5730 5727 5730 5731 5731 5732 5731 5729 5729 5730 5731 5730 5729 5728 5727 5726 5725 5724 5723 5722 5721 5720 5720 5719 5718 5716 5713 5711 5709 5706
5678 5679 5685 5691 5695 5695 5698 5703 5704 5704 5704 5711 5709 5718 5718 5716 5717 5718 5715 5717 5718 5717 5715 5715 5717 5717 5717 5716 5715 5714 5714 5712 5711 5710 5710 5708 5707 5706 5705 5702 5700 5699 5696 5692
5662 5666 5673 5681 5680 5680 5683 5685 5686 5686 5696 5686 5704 5697 5710 5707 5704 5697 5700 5705 5704 5703 5701 5700 5701 5704 5705 5705 5704 5702 5701 5700 5699 5698 5697 5695 5693 5692 5692 5690 5687 5684 5681 5676
5649 5653 5656 5661 5670 5666 5666 5669 5674 5676 5679 5673 5687 5685 5695 5698 5695 5690 5689 5688 5689 5688 5687 5689 5690 5691 5691 5689 5688 5688 5687 5687 5685 5684 5683 5681 5680 5680 5678 5675 5672 5668 5664 5660
5633 5636 5640 5642 5655 5647 5643 5665 5666 5664 5668 5669 5666 5680 5676 5678 5678 5677 5674 5673 5674 5675 5677 5677 5675 5674 5674 5675 5674 5673 5672 5672 5672 5671 5669 5668 5667 5665 5662 5658 5655 5651 5648 5644
5616 5623 5625 5627 5629 5618 5644 5655 5651 5648 5655 5653 5657 5669 5664 5661 5661 5662 5663 5662 5664 5664 5663 5662 5661 5661 5661 5660 5659 5660 5660 5660 5658 5658 5656 5654 5652 5648 5645 5641 5638 5635 5632 5628
5602 5607 5607 5606 5612 5614 5627 5645 5640 5635 5642 5646 5648 5654 5655 5650 5643 5657 5650 5649 5649 5647 5648 5649 5648 5648 5648 5648 5648 5647 5647 5645 5644 5644 5642 5639 5635 5632 5629 5626 5622 5620 5616 5611
5586 5587 5590 5593 5590 5592 5624 5628 5622 5617 5613 5649 5632 5640 5641 5633 5631 5645 5634 5632 5634 5635 5636 5635 5634 5633 5632 5633 5633 5633 5633 5631 5630 5628 5626 5623 5620 5617 5615 5611 5607 5604 5600 5595
5567 5570 5569 5577 5575 5579 5609 5608 5603 5595 5620 5621 5618 5623 5623 5619 5619 5625 5623 5620 5621 5621 5621 5619 5617 5617 5618 5617 5616 5616 5615 5614 5613 5611 5610 5607 5604 5602 5598 5595 5591 5587 5582 5578
5550 5555 5558 5564 5564 5565 5592 5588 5586 5595 5597 5603 5603 5603 5605 5605 5606 5609 5609 5606 5603 5604 5604 5604 5603 5603 5602 5601 5600 5599 5598 5597 5596 5595 5593 5590 5587 5585 5582 5577 5574 5569 5565 5561
5535 5542 5545 5547 5549 5559 5566 5569 5570 5574 5579 5583 5583 5584 5585 5586 5587 5588 5591 5592 5592 5589 5589 5589 5588 5587 5586 5585 5583 5581 5580 5579 5578 5577 5575 5573 5570 5567 5564 5560 5557 5553 5548 5544
5520 5527 5526 5529 5539 5544 5546 5551 5553 5556 5560 5564 5566 5567 5569 5570 5570 5571 5571 5571 5573 5573 5573 5572 5571 5571 5570 5568 5566 5564 5563 5562 5560 5559 5557 5555 5553 5550 5547 5545 5541 5536 5530 5525
5504 5509 5512 5513 5520 5527 5533 5536 5539 5542 5545 5548 5550 5551 5552 5553 5555 5555 5554 5553 5554 5554 5554 5553 5553 5553 5552 5552 5551 5549 5547 5545 5544 5542 5540 5537 5535 5532 5529 5526 5522 5516 5509 5503
5491 5497 5500 5502 5506 5509 5517 5520 5524 5527 5530 5533 5535 5536 5536 5537 5538 5540 5538 5538 5539 5539 5538 5536 5535 5534 5532 5532 5532 5530 5528 5527 5526 5525 5523 5520 5517 5513 5509 5505 5499 5494 5489 5484